Tracking 31030 objects as of 16-Jul-2025
HD Live streaming from Space Station
objects crossing your sky now

STARLINK-5652

Track STARLINK-5652 now!
10-day predictions
STARLINK-5652 is classified as:


NORAD ID: 55334
Int'l Code: 2023-013D
Perigee: 565.5 km
Apogee: 567.0 km
Inclination: 43.0 °
Period: 95.8 minutes
Semi major axis: 6937 km
RCS: Unknown
Launch date: January 26, 2023
Source: United States (US)
Launch site: AIR FORCE EASTERN TEST RANGE (AFETR)
Your satellite tracking list
Your tracking list is empty




NASA's NSSDC Master Catalog

Two Line Element Set (TLE):
1 55334U 23013D   25197.88243595 -.00000255  00000-0 -37713-5 0  9997
2 55334  43.0038 141.9096 0001079 280.5865  79.4856 15.02534014136667
Source of the keplerian elements: AFSPC